Погода Сумы

Погода Сумы : погода сейчас, прогноз погоды и архив. Всё, что Вы хотите узнать о погоде Сумы!

Хотите узнать прогноз погоды Сумы? Тогда Вам сюда: Погода Сумы

Поиск расширенной информации на нашем сайте:

Полезная информация:

Другие новости

Новости СМИ2

Главная страница сайта

Новости сайта

03.07.2017

Напоминаем, что на нашем специализированном сайте Метеоцентр.Азия вы можете получить высокодетализированные автоматические прогнозы погоды по пунктам России, СНГ и мира в авиационном формате (включающие направление и скорость ветра, видимость, явления погоды, количество и форму облачности, нижнюю и верхнюю границу облачности).

Рекомендуем:

Погода Сумы - сегодня

Время (UTC), дата Ветер
(°,м/с) 
Видим.   Явления Облачность Т
(°С)
Тd
(°С)
f(%) Тe
(°С)
Pmin
(гПа)
dP
(гПа)
Po
(мм)
O2
(г/м3)
Тmin Tmax R s Состояние
почвы
21 18.05.19 050 (СВ) 10 км    3/0 верхняя 
[Ci fib]
+15 +6.1 55 +15  1015.2  0.4  745  284           
00 19.05.19 050 (СВ) 10 км    3/0 верхняя 
[Ci fib]
+12.5 +6.4 66 +13  1015.2  -0.2  745  286           
03 19.05.19 010 (С) 10 км    ясно 
+10.5 +7.1 79 +12  1016  0.6  746  288           
06 19.05.19 060 (СВ) 10 км    ясно 
+18 +12.2 69 +23  1016.1  0.7  746  280  +9.2         
09 19.05.19 070 (В) 10 км    6/0 верхняя 
[Ci fib]
+22.5 +12.1 52 +27  1015.4  -0.3  746  275           
12 19.05.19 090 (В) 10 км    ясно 
+24.6 +8.4 36 +25  1014.9  -0.4  746  274           
15 19.05.19 090 (В) 10 км    ясно 
+24.3 +6.3 31 +24  1014.9  746  275           
18 19.05.19 060 (СВ) 10 км    ясно 
+20.5 +8 44 +21  1016  0.8  746  278    +25       
21 19.05.19 070 (В) 10 км    ясно 
+16.7 +8.3 58 +18  1017.3  747  282           
00 20.05.19 тихо ()   10 км    ясно 
+12.5 +7.1 70 +13  1018.4  0.7  747  287           
03 20.05.19 080 (В) 10 км    ясно 
+13.2 +7.5 68 +13  1018.9  0.6  748  286           
06 20.05.19 120 (ЮВ) 10 км    ясно 
+20 +6.2 41 +20  1020  1.6  749  280  +12         
09 20.05.19 120 (ЮВ) 10 км    ясно 
+22.9 +6.3 34 +23  1019.7  -0.1  749  277           
12 20.05.19 090 (В) 10 км    ясно 
+24.3 +4.5 28 +24  1019  -0.6  749  276           
15 20.05.19 110 (В) 10 км    ясно 
+23.7 +5.3 30 +24  1018.3  -0.8  748  276           
18 20.05.19 090 (В) 10 км    3/0 верхняя 
[Ci fib]
+16.5 +6.5 52 +17  1018.6  -0.2  748  283    +24.5       
21 20.05.19 110 (В) 10 км    ясно 
+13.4 +6.3 62 +13  1019.3  0.5  748  286           
00 21.05.19 140 (ЮВ) 10 км    3/0 верхняя 
[Ci fib]
+11.9 +5.7 66 +13  1019.4  748  288           
03 21.05.19 130 (ЮВ) 10 км    3/0 верхняя 
[Ci fib]
+11.3 +5.5 67 +11  1019.3  -0.2  748  289           
06 21.05.19 150 (ЮВ) 10 км    3/0 верхняя 
[Ci fib]
+19.2 +6.7 44 +19  1018.6  -0.1  748  280  +10         
09 21.05.19 140 (ЮВ) 10 км    8/0 верхняя 
[Ci fib]
+22.3 +3.2 29 +22  1017.6  -0.7  747  278           
12 21.05.19 130 (ЮВ) 10 км    8/3 1000 м кучево-дожд., средняя 
[Cb calv|Ac trans]
+22.8 +4.7 31 +23  1016.3  -1.3  746  277           
15 21.05.19 140 (ЮВ) 10 км  {ливн. осадки}  8/4 600 м кучево-дожд., средняя 
[Cb calv|Ac trans]
+21.9 +6.7 37 +22  1014.7  -1.6  745  277           
18 21.05.19 120 (ЮВ) 10 км  {ливн. осадки}  9/5 600 м кучево-дожд., средняя 
[Cb calv|Ac trans]
+19.1 +7.3 46 +20  1014.3  -0.6  745  279    +24.5  0.0     
21 21.05.19 140 (ЮВ) 10 км    6/0 средняя 
[Ac trans]
+15.6 +8.5 63 +16  1014  -0.5  744  282           
Время (UTC), дата Ветер
(°,м/с) 
Видим.   Явления Облачность Т
(°С)
Тd
(°С)
f(%) Тe
(°С)
Pmin
(гПа)
dP
(гПа)
Po
(мм)
O2
(г/м3)
Тmin Tmax R s Состояние
почвы

Для получения пояснительной информации подведите курсор к названию столбца.

ПОГОДА Сумы - архив

Всё, что Вы хотите узнать о погоде Сумы - удобно и подробно!

Выберите нужную дату (начиная с 1 января 2018* года) и нажмите кнопку "Найти".
Будут отображены архивные сводки погоды по пункту Сумы, начиная с указанной даты.


Отображать данные в формате CSV (для использования в таблицах Excel)


Внимание! Наш архив погоды предназначен исключительно для личного некоммерческого использования в познавательных целях. Если Вам необходимы официальные справки о состоянии погоды (для производственных, юридических, коммерческих и т.п. целей), обращайтесь в органы Росгидромета.

*Примечание: данная дата относится к архиву по метеостанциям СССР (Россия, СНГ, Балтия).
Архив по метеостанциям Зарубежной Европы и Азии (кроме Китая) хранится 10 дней, по другим регионам земного шара (Китай, Африка, Америка, Австралия, Океания) - 1 день.

Сумы - район местоположения метеостанции


Название, широта, долгота, высота метеостанции:
Сумы 50.9°ш. 34.7°д. 181 м над ур. моря [Украина]

Дополнительная информация

В oтличие oт бoльшинства пoгoдных сайтoв мы публикуем пoдрoбную метеoинфoрмацию в детальнoм прoфессиoнальнoм фoрмате.

Характеристики температуры и влажнoсти вoздуха измеряются на высoте 2 м в тени вдали oт зданий и деревьев.
Скoрoсть ветра измеряется на высoте 10 м (на урoвне рoста челoвека скoрoсть ветра ниже в 1.5-2 раза). Если метеoстанция нахoдится в гoрoде или в лесу, тo скoрoсть ветра занижена на 2-4 м/с пo сравнению с oткрытым местoм. Скoрoсть ветра над акватoриями крупных рек и oзёр, а также на вершинах хoлмoв на 2-5 м/с выше, чем в oбычных услoвиях.
Атмoсфернoе давление в разных тoчках местнoсти мoжет значительнo oтличаться oт давления на метеoстанции, в зависимoсти oт услoвий рельефа (при пoдъёме на 10 м давление пoнижается примернo на 1 мм рт.ст.).